DW1196 Weather Reports


Display with metric or nautical units.
time (UTC)temp
F
wind
direction
speed
MPH
gust
MPH
rain 1hr
in
rain 24hr
in
rain mn
in
humidity
%
barometer
mb
20260509074604 63 99 2.0 3.0 0.00 0.00 0.00 67 1025.0
20260509074104 63 99 1.0 2.0 0.00 0.00 0.00 67 1025.0
20260509073605 63 99 1.0 2.0 0.00 0.00 0.00 67 1025.0
20260509073104 63 99 1.0 3.0 0.00 0.00 0.00 66 1024.9
20260509072604 64 99 1.0 3.0 0.00 0.00 0.00 66 1024.9
20260509072104 64 99 1.0 3.0 0.00 0.00 0.00 66 1024.9
20260509071104 64 106 3.0 7.0 0.00 0.00 0.00 65 1024.8
20260509070604 64 105 4.0 7.0 0.00 0.00 0.00 64 1024.7
20260509070104 65 108 5.0 9.0 0.00 0.00 0.00 64 1024.7
20260509065603 65 109 5.0 9.0 0.00 0.00 0.00 63 1024.7
20260509065104 65 106 3.0 8.0 0.00 0.00 0.00 63 1024.6
20260509064603 65 112 6.0 9.0 0.00 0.00 0.00 62 1024.6
20260509064103 66 106 6.0 10.0 0.00 0.00 0.00 62 1024.5
20260509063603 66 105 8.0 13.0 0.00 0.00 0.00 62 1024.4
20260509062603 66 116 5.0 8.0 0.00 0.00 0.00 62 1024.4
20260509062103 66 88 5.0 12.0 0.00 0.00 0.00 61 1024.3
20260509061604 67 112 7.0 12.0 0.00 0.00 0.00 61 1024.3
20260509061103 67 83 6.0 12.0 0.00 0.00 0.00 61 1024.2
20260509060603 67 82 8.0 12.0 0.00 0.00 0.00 60 1024.2
20260509060103 67 92 8.0 12.0 0.00 0.00 0.00 60 1024.0
20260509055603 67 107 8.0 13.0 0.00 0.00 0.00 59 1024.0
20260509054603 68 98 7.0 14.0 0.00 0.00 0.00 58 1023.9
20260509053604 68 121 7.0 12.0 0.00 0.00 0.00 57 1023.8
20260509053104 68 90 7.0 12.0 0.00 0.00 0.00 57 1023.8
20260509052104 69 70 7.0 13.0 0.00 0.00 0.00 57 1023.7
20260509051604 69 78 7.0 13.0 0.00 0.00 0.00 56 1023.7
20260509051104 69 86 9.0 13.0 0.00 0.00 0.00 56 1023.7
20260509050604 69 99 9.0 12.0 0.00 0.00 0.00 56 1023.7
20260509045604 70 84 10.0 14.0 0.00 0.00 0.00 55 1023.6
20260509043604 70 77 6.0 12.0 0.00 0.00 0.00 54 1023.5
20260509043104 70 83 9.0 12.0 0.00 0.00 0.00 53 1023.5
20260509042604 71 70 5.0 9.0 0.00 0.00 0.00 53 1023.5
20260509042104 71 290 1.0 3.0 0.00 0.00 0.00 47 1023.5
20260509041604 72 290 2.0 6.0 0.00 0.00 0.00 47 1023.4
20260509041104 72 273 3.0 7.0 0.00 0.00 0.00 47 1023.4
20260509040604 72 271 3.0 8.0 0.00 0.00 0.00 46 1023.4
20260509040104 72 295 2.0 6.0 0.00 0.00 0.00 48 1023.4
20260509035605 71 295 2.0 7.0 0.00 0.00 0.00 48 1023.5
20260509034604 71 294 6.0 8.0 0.00 0.00 0.00 47 1023.5
20260509033103 72 271 3.0 7.0 0.00 0.00 0.00 47 1023.6
20260509032604 71 244 1.0 3.0 0.00 0.00 0.00 48 1023.6
20260509031604 70 39 3.0 5.0 0.00 0.00 0.00 48 1023.7
20260509031104 71 336 1.0 7.0 0.00 0.00 0.00 47 1023.7
20260509030605 71 312 3.0 8.0 0.00 0.00 0.00 48 1023.8
20260509030104 71 255 2.0 6.0 0.00 0.00 0.00 48 1023.9
20260509025604 70 289 3.0 7.0 0.00 0.00 0.00 48 1023.9
20260509025104 70 304 5.0 10.0 0.00 0.00 0.00 48 1024.0
20260509024604 71 292 3.0 7.0 0.00 0.00 0.00 48 1024.0
20260509024104 71 291 3.0 7.0 0.00 0.00 0.00 48 1024.1
20260509023604 70 290 1.0 3.0 0.00 0.00 0.00 48 1024.1
20260509023104 70 264 1.0 3.0 0.00 0.00 0.00 48 1024.2
20260509022604 70 264 1.0 5.0 0.00 0.00 0.00 48 1024.3
20260509022104 69 242 3.0 7.0 0.00 0.00 0.00 49 1024.3
20260509021604 70 250 5.0 7.0 0.00 0.00 0.00 49 1024.5
20260509020104 69 271 5.0 10.0 0.00 0.00 0.00 49 1024.9
20260509015604 69 258 2.0 8.0 0.00 0.00 0.00 49 1025.0
20260509015104 69 271 4.0 9.0 0.00 0.00 0.00 50 1025.0
20260509013604 68 135 2.0 8.0 0.00 0.00 0.00 51 1025.1
20260509013104 69 247 3.0 8.0 0.00 0.00 0.00 51 1025.2
20260509012604 69 274 3.0 7.0 0.00 0.00 0.00 52 1025.2
20260509011604 68 282 2.0 6.0 0.00 0.00 0.00 53 1025.2
20260509010604 66 241 3.0 8.0 0.00 0.00 0.00 55 1025.3
20260509005104 67 178 3.0 7.0 0.00 0.00 0.00 56 1025.7
20260509004603 67 173 2.0 5.0 0.00 0.00 0.00 56 1025.6
20260509004104 66 299 3.0 7.0 0.00 0.00 0.00 57 1025.7
20260509002604 66 298 4.0 7.0 0.00 0.00 0.00 58 1025.8
20260509002104 65 290 1.0 8.0 0.00 0.00 0.00 61 1025.8
20260509001604 64 273 5.0 9.0 0.00 0.00 0.00 61 1025.8
20260509001104 64 253 6.0 12.0 0.00 0.00 0.00 60 1025.7
20260509000604 63 243 3.0 8.0 0.00 0.00 0.00 61 1025.9
20260509000103 64 257 3.0 8.0 0.00 0.00 0.00 61 1025.9
20260508235104 64 239 3.0 7.0 0.00 0.00 0.00 64 1026.0
20260508234604 63 290 5.0 10.0 0.00 0.00 0.00 65 1026.0
20260508234104 62 290 5.0 9.0 0.00 0.00 0.00 66 1026.0
20260508233104 62 282 5.0 8.0 0.00 0.00 0.00 67 1026.0
20260508232604 61 265 2.0 8.0 0.00 0.00 0.00 67 1026.0
20260508232104 61 293 5.0 8.0 0.00 0.00 0.00 67 1025.9
20260508231604 60 292 5.0 8.0 0.00 0.00 0.00 69 1026.0
20260508230604 60 286 4.0 8.0 0.00 0.00 0.00 70 1026.0
20260508230105 59 296 4.0 8.0 0.00 0.00 0.00 71 1026.0
20260508225604 59 305 4.0 6.0 0.00 0.00 0.00 70 1026.0
20260508225104 59 303 3.0 6.0 0.00 0.00 0.00 72 1026.0
20260508223604 58 290 1.0 3.0 0.00 0.00 0.00 73 1026.0
20260508223104 57 290 2.0 6.0 0.00 0.00 0.00 74 1026.0
20260508222603 57 302 3.0 6.0 0.00 0.00 0.00 75 1026.0
20260508222104 56 301 1.0 3.0 0.00 0.00 0.00 75 1025.9
20260508221604 56 301 2.0 3.0 0.00 0.00 0.00 76 1025.8
20260508221104 55 251 2.0 3.0 0.00 0.00 0.00 77 1025.9
20260508220604 55 289 3.0 5.0 0.00 0.00 0.00 77 1025.8
20260508220104 54 299 3.0 5.0 0.00 0.00 0.00 78 1025.8
20260508215604 54 294 3.0 5.0 0.00 0.00 0.00 79 1025.7
20260508215104 53 294 3.0 5.0 0.00 0.00 0.00 79 1025.6
20260508214604 53 271 2.0 3.0 0.00 0.00 0.00 80 1025.6
20260508214103 53 304 1.0 3.0 0.00 0.00 0.00 80 1025.6
20260508212604 52 319 2.0 3.0 0.00 0.00 0.00 82 1025.5
20260508212104 51 295 2.0 3.0 0.00 0.00 0.00 82 1025.4
20260508211604 51 278 1.0 3.0 0.00 0.00 0.00 82 1025.4
20260508211104 51 289 1.0 5.0 0.00 0.00 0.00 82 1025.3
20260508210604 51 290 2.0 5.0 0.00 0.00 0.00 82 1025.2
20260508210104 51 299 3.0 3.0 0.00 0.00 0.00 83 1025.2
20260508205604 51 276 1.0 3.0 0.00 0.00 0.00 82 1025.2
20260508205103 51 277 2.0 3.0 0.00 0.00 0.00 82 1025.1
20260508204103 51 324 0.0 3.0 0.00 0.00 0.00 82 1025.0
20260508203604 51 324 1.0 2.0 0.00 0.00 0.00 82 1025.0
20260508203104 51 324 0.0 2.0 0.00 0.00 0.00 82 1024.9
20260508202604 52 324 1.0 3.0 0.00 0.00 0.00 81 1024.7
20260508202104 52 316 1.0 3.0 0.00 0.00 0.00 81 1024.8
20260508201604 52 308 1.0 3.0 0.00 0.00 0.00 81 1024.6
20260508201103 52 303 2.0 6.0 0.00 0.00 0.00 80 1024.6
20260508200603 53 305 2.0 6.0 0.00 0.00 0.00 80 1024.5
20260508200104 53 299 2.0 3.0 0.00 0.00 0.00 79 1024.5
20260508195604 53 299 2.0 3.0 0.00 0.00 0.00 79 1024.4
20260508195104 54 299 2.0 3.0 0.00 0.00 0.00 78 1024.4
20260508193603 54 307 2.0 3.0 0.00 0.00 0.00 77 1023.9
20260508192604 55 305 3.0 7.0 0.00 0.00 0.00 77 1023.8
20260508192104 55 285 2.0 3.0 0.00 0.00 0.00 77 1023.7
20260508191604 55 272 3.0 6.0 0.00 0.00 0.00 77 1023.7
20260508191104 55 298 1.0 3.0 0.00 0.00 0.00 77 1023.6
20260508190603 55 298 3.0 5.0 0.00 0.00 0.00 77 1023.7
20260508190103 55 298 2.0 3.0 0.00 0.00 0.00 78 1023.7
20260508185604 55 298 2.0 3.0 0.00 0.00 0.00 78 1023.7
20260508185104 55 298 2.0 3.0 0.00 0.00 0.00 77 1023.5
20260508184104 54 298 2.0 3.0 0.00 0.00 0.00 78 1023.5
20260508183604 54 298 2.0 3.0 0.00 0.00 0.00 78 1023.4
20260508183104 54 298 2.0 3.0 0.00 0.00 0.00 78 1023.4
20260508182604 54 298 2.0 3.0 0.00 0.00 0.00 78 1023.5
20260508182104 54 298 2.0 3.0 0.00 0.00 0.00 78 1023.4
20260508181603 54 298 2.0 3.0 0.00 0.00 0.00 78 1023.3
20260508181104 54 298 1.0 2.0 0.00 0.00 0.00 78 1023.4
20260508180603 54 298 2.0 3.0 0.00 0.00 0.00 79 1023.3
20260508180104 54 298 1.0 3.0 0.00 0.00 0.00 79 1023.2
20260508175104 54 298 2.0 3.0 0.00 0.00 0.00 79 1023.2
20260508174104 53 298 2.0 6.0 0.00 0.00 0.00 79 1023.2
20260508173604 53 306 2.0 7.0 0.00 0.00 0.00 79 1023.3
20260508172604 53 343 3.0 3.0 0.00 0.00 0.00 78 1023.2
20260508171604 54 288 2.0 3.0 0.00 0.00 0.00 76 1023.1
20260508171104 54 288 0.0 1.0 0.00 0.00 0.00 76 1023.1
20260508165604 54 288 0.0 2.0 0.00 0.00 0.00 75 1023.1
20260508165104 54 288 1.0 3.0 0.00 0.00 0.00 75 1023.0
20260508164604 55 288 1.0 2.0 0.00 0.00 0.00 75 1023.0
20260508164104 55 288 1.0 5.0 0.00 0.00 0.00 74 1023.1
20260508163605 55 290 3.0 5.0 0.00 0.00 0.00 74 1022.9
20260508163104 55 278 3.0 8.0 0.00 0.00 0.00 74 1022.9
20260508162604 55 291 2.0 3.0 0.00 0.00 0.00 74 1023.0
20260508162104 55 295 2.0 3.0 0.00 0.00 0.00 74 1023.0
20260508161605 55 303 1.0 3.0 0.00 0.00 0.00 74 1022.9
20260508161104 55 268 0.0 2.0 0.00 0.00 0.00 74 1022.9
20260508160604 55 268 0.0 2.0 0.00 0.00 0.00 73 1022.8
20260508160104 55 268 0.0 2.0 0.00 0.00 0.00 73 1022.9
20260508155604 55 268 1.0 3.0 0.00 0.00 0.00 73 1022.8
20260508155103 55 268 2.0 3.0 0.00 0.00 0.00 73 1022.7
20260508154105 55 268 2.0 3.0 0.00 0.00 0.00 72 1022.8
20260508153604 56 268 1.0 3.0 0.00 0.00 0.00 72 1022.7
20260508153105 56 268 2.0 5.0 0.00 0.00 0.00 72 1022.9
20260508152104 55 300 1.0 3.0 0.00 0.00 0.00 72 1022.8
20260508151604 55 300 1.0 3.0 0.00 0.00 0.00 73 1022.9
20260508151104 55 299 3.0 5.0 0.00 0.00 0.00 73 1023.0
20260508150604 55 289 3.0 6.0 0.00 0.00 0.00 73 1022.9
20260508150104 55 296 3.0 5.0 0.00 0.00 0.00 73 1023.0
20260508145605 55 296 2.0 5.0 0.00 0.00 0.00 73 1022.9
20260508145104 55 296 2.0 3.0 0.00 0.00 0.00 73 1022.8
20260508144603 55 296 3.0 3.0 0.00 0.00 0.00 73 1022.8
20260508144104 55 282 3.0 6.0 0.00 0.00 0.00 73 1022.7
20260508143604 55 288 3.0 5.0 0.00 0.00 0.00 73 1022.7
20260508143103 55 288 3.0 6.0 0.00 0.00 0.00 73 1022.8
20260508142604 55 279 2.0 3.0 0.00 0.00 0.00 73 1022.7
20260508142104 55 275 3.0 6.0 0.00 0.00 0.00 73 1022.7
20260508141604 55 297 2.0 3.0 0.00 0.00 0.00 72 1022.8
20260508141104 55 297 2.0 3.0 0.00 0.00 0.00 72 1022.7
20260508140604 55 296 2.0 3.0 0.00 0.00 0.00 72 1022.8
20260508140104 55 276 2.0 3.0 0.00 0.00 0.00 72 1022.8
20260508135604 55 303 2.0 3.0 0.00 0.00 0.00 72 1022.6
20260508134604 56 303 0.0 2.0 0.00 0.00 0.00 71 1022.6
20260508133604 56 303 1.0 3.0 0.00 0.00 0.00 71 1022.5
20260508133104 56 303 1.0 3.0 0.00 0.00 0.00 71 1022.5
20260508132604 56 303 2.0 3.0 0.00 0.00 0.00 71 1022.5
20260508132104 56 303 3.0 5.0 0.00 0.00 0.00 71 1022.5
20260508131605 56 294 3.0 5.0 0.00 0.00 0.00 70 1022.5
20260508131104 56 282 2.0 5.0 0.00 0.00 0.00 70 1022.6
20260508130604 56 250 2.0 5.0 0.00 0.00 0.00 70 1022.6
20260508130104 56 266 2.0 5.0 0.00 0.00 0.00 70 1022.5
20260508125604 56 290 2.0 5.0 0.00 0.00 0.00 70 1022.5
20260508125104 56 290 3.0 5.0 0.00 0.00 0.00 70 1022.5
20260508124604 56 290 3.0 3.0 0.00 0.00 0.00 70 1022.6
20260508124104 56 290 2.0 5.0 0.00 0.00 0.00 70 1022.5
20260508123604 56 297 3.0 7.0 0.00 0.00 0.00 70 1022.5
20260508122604 57 252 4.0 7.0 0.00 0.00 0.00 69 1022.5
20260508121603 57 268 3.0 5.0 0.00 0.00 0.00 69 1022.5
20260508121104 57 261 2.0 5.0 0.00 0.00 0.00 69 1022.6
20260508120604 57 252 3.0 6.0 0.00 0.00 0.00 69 1022.5
20260508120103 57 261 3.0 6.0 0.00 0.00 0.00 69 1022.5
20260508115603 57 287 3.0 9.0 0.00 0.00 0.00 69 1022.6
20260508115103 57 263 4.0 9.0 0.00 0.00 0.00 68 1022.5
20260508114603 57 255 3.0 8.0 0.00 0.00 0.00 68 1022.5
20260508114103 57 257 3.0 7.0 0.00 0.00 0.00 68 1022.5
20260508113604 57 257 4.0 6.0 0.00 0.00 0.00 68 1022.4
20260508113104 58 258 3.0 7.0 0.00 0.00 0.00 68 1022.5
20260508112604 58 253 3.0 6.0 0.00 0.00 0.00 68 1022.4
20260508111605 58 263 3.0 7.0 0.00 0.00 0.00 68 1022.4
20260508111104 58 254 3.0 6.0 0.00 0.00 0.00 68 1022.5
20260508110605 58 251 3.0 6.0 0.00 0.00 0.00 68 1022.4
20260508110104 58 261 3.0 7.0 0.00 0.00 0.00 68 1022.3
20260508105604 58 256 3.0 5.0 0.00 0.00 0.00 68 1022.2
20260508105104 58 289 4.0 9.0 0.00 0.00 0.00 68 1022.1
20260508104603 58 279 4.0 8.0 0.00 0.00 0.00 67 1022.0
20260508104104 58 287 5.0 8.0 0.00 0.00 0.00 67 1022.0
20260508103603 58 288 2.0 8.0 0.00 0.00 0.00 67 1022.1
20260508102604 58 278 3.0 5.0 0.00 0.00 0.00 67 1022.0
20260508102104 58 280 2.0 3.0 0.00 0.00 0.00 67 1021.9
20260508101604 58 292 3.0 5.0 0.00 0.00 0.00 66 1021.9
20260508101104 58 258 2.0 3.0 0.00 0.00 0.00 66 1021.9
20260508100604 59 259 3.0 6.0 0.00 0.00 0.00 66 1021.9
20260508100104 59 258 3.0 6.0 0.00 0.00 0.00 66 1021.8
20260508095104 59 273 2.0 6.0 0.00 0.00 0.00 65 1021.6
20260508094604 59 283 4.0 8.0 0.00 0.00 0.00 64 1021.5
20260508094104 59 286 5.0 10.0 0.00 0.00 0.00 64 1021.5
20260508093604 59 273 4.0 10.0 0.00 0.00 0.00 64 1021.6
20260508093104 60 268 3.0 9.0 0.00 0.00 0.00 63 1021.5
20260508092104 60 291 5.0 10.0 0.00 0.00 0.00 63 1021.3
20260508091604 60 272 3.0 10.0 0.00 0.00 0.00 63 1021.1
20260508090604 60 265 3.0 13.0 0.00 0.00 0.00 63 1021.0
20260508090105 60 272 6.0 12.0 0.00 0.00 0.00 62 1020.9
20260508085604 60 274 5.0 10.0 0.00 0.00 0.00 62 1020.9
20260508085104 60 277 6.0 10.0 0.00 0.00 0.00 62 1020.8
20260508084604 60 287 5.0 12.0 0.00 0.00 0.00 62 1020.9
20260508083605 61 282 7.0 12.0 0.00 0.00 0.00 61 1020.7
20260508082604 61 279 7.0 12.0 0.00 0.00 0.00 60 1020.6
20260508082105 61 278 6.0 12.0 0.00 0.00 0.00 60 1020.5
20260508081604 61 274 6.0 14.0 0.00 0.00 0.00 60 1020.4
20260508081104 61 280 6.0 13.0 0.00 0.00 0.00 59 1020.4
20260508080604 62 287 8.0 15.0 0.00 0.00 0.00 59 1020.3
20260508075604 62 299 7.0 12.0 0.00 0.00 0.00 58 1020.2